Probability
0 0 0 0 0 0 0 0 1 1 1 0 0 0 1 2 4 5 6 6 5 4 3 1 1 1 0 0 0 0 0 0 0 0 0 0 0 0 0 0 0 0 0
0 0 0 0 0 0 0 0 0 0 0 0 0 0 0 1 3 4 6 6 5 5 4 3 2 1 0 0 0 0 0 0 0 0 0 0 0 0 0 0 0 0 0
0 0 0 0 0 0 0 0 0 0 0 0 0 0 0 1 2 3 5 5 5 5 5 4 3 2 1 0 0 0 0 0 0 0 0 0 0 0 0 0 0 0 0
0 0 0 0 0 0 0 0 0 0 0 0 0 0 0 1 1 3 4 4 4 4 3 3 3 2 2 1 0 0 0 0 0 0 0 0 0 0 0 0 0 0 0
0 0 0 0 0 0 0 0 0 0 0 0 0 0 0 0 1 3 3 4 3 3 1 1 1 1 2 1 0 0 0 0 0 0 0 0 0 0 0 0 0 0 0
0 0 0 0 0 0 0 0 0 0 0 0 0 0 0 0 1 2 3 3 3 2 1 0 0 0 1 1 0 0 0 0 0 0 0 0 0 0 0 0 0 0 0
0 0 0 0 0 0 0 0 0 0 0 0 0 0 0 0 1 1 2 2 2 1 1 1 1 0 0 0 0 0 0 0 0 0 0 0 0 0 0 0 0 0 0
0 0 0 0 0 0 0 0 0 0 0 0 0 0 0 0 0 0 1 1 1 0 0 1 1 1 0 0 0 0 0 0 0 0 0 0 0 0 0 0 0 0 0
0 0 0 0 0 0 0 0 0 0 0 0 0 0 0 0 0 0 1 1 0 0 1 1 1 1 1 1 0 0 0 0 0 0 0 0 0 0 0 0 0 0 0
0 0 0 0 0 0 0 0 0 0 0 0 0 0 0 0 0 0 1 1 1 0 1 1 1 1 1 1 0 0 0 0 0 0 0 0 0 0 0 0 0 0 0
0 0 0 0 0 0 0 0 0 0 0 0 0 0 0 0 0 0 0 0 1 1 1 0 0 0 1 1 0 0 0 0 0 0 0 0 0 0 0 0 0 0 0
0 0 0 0 0 0 0 0 0 0 0 0 0 0 0 0 0 0 0 0 0 0 0 0 0 0 0 0 0 0 0 0 0 0 0 0 0 0 0 0 0 0 0
0 0 0 0 0 0 0 0 0 0 0 0 0 0 0 0 0 0 0 0 0 0 0 0 0 0 0 0 0 0 0 0 0 0 0 0 0 0 0 0 0 0 0
0 0 0 0 0 0 0 0 0 0 0 0 0 0 0 0 0 0 0 0 0 0 0 0 0 0 0 0 0 0 0 0 0 0 0 0 0 0 0 0 0 0 0
0 0 0 0 0 0 0 0 0 0 0 0 0 0 0 0 0 0 0 0 0 0 0 0 0 0 0 0 0 0 0 0 0 0 0 0 0 0 0 0 0 0 0
0 0 0 0 0 0 0 0 0 0 0 0 0 0 0 0 0 0 0 0 0 0 0 0 0 0 0 0 0 0 0 0 0 0 0 0 0 0 0 0 0 0 0
0 0 0 0 0 0 0 0 0 0 0 0 0 0 0 0 0 0 0 0 0 0 0 0 0 0 0 0 0 0 0 0 0 0 0 0 0 0 0 0 0 0 0
0 0 0 0 0 0 0 0 0 0 0 0 0 0 0 0 0 0 0 0 0 0 0 0 0 0 0 0 0 0 0 0 0 0 0 0 0 0 0 0 0 0 0
0 0 0 0 0 0 0 0 0 0 0 0 0 0 0 0 0 0 0 0 0 0 0 0 0 0 0 0 0 0 0 0 0 0 0 0 0 0 0 0 0 0 0
0 0 0 0 0 0 0 0 0 0 0 0 0 0 0 0 0 0 0 0 0 0 0 0 0 0 0 0 0 0 0 0 0 0 0 0 0 0 0 0 0 0 0
0 0 0 0 0 0 0 0 0 0 0 0 0 0 0 0 0 0 0 0 0 0 0 0 0 0 0 0 0 0 0 0 0 0 0 0 0 0 0 0 0 0 0
0 0 0 0 0 0 0 0 0 0 0 0 0 0 0 0 0 0 0 0 0 0 0 0 0 0 0 0 0 0 0 0 0 0 0 0 0 0 0 0 0 0 0
0 0 0 0 0 0 0 0 0 0 0 0 0 0 0 0 0 0 0 0 0 0 0 0 0 0 0 0 0 0 0 0 0 0 0 0 0 0 0 0 0 0 0
0 0 0 0 0 0 0 0 0 0 0 0 0 0 0 0 0 0 0 0 0 0 0 0 0 0 0 0 0 0 0 0 0 0 0 0 0 0 0 0 0 0 0
0 0 0 0 0 0 0 0 0 0 0 0 0 0 0 0 0 0 0 0 0 0 0 0 0 0 0 0 0 0 0 0 0 0 0 0 0 0 0 0 0 0 0
0 0 0 0 0 0 0 0 0 0 0 0 0 0 0 0 0 0 0 0 0 0 0 0 0 0 0 0 0 0 0 0 0 0 0 0 0 0 0 0 0 0 0
Wind_Speed
6 4 4 3 3 4 5 6 6 5 4 4 4 4 4 4 3 3 4 5 4 5 4 3 4 4 4 4 4 3 3 2 1 1 1 2 2 3 2 2 2 2 3
4 3 3 2 3 4 4 5 6 6 6 4 4 3 3 3 3 3 3 4 4 4 4 4 4 4 4 5 4 4 2 2 2 2 1 2 3 3 2 2 2 3 2
4 3 2 2 2 3 4 4 6 6 6 5 3 3 3 3 3 4 4 4 4 4 4 5 5 5 5 4 5 5 5 3 3 2 2 2 2 1 2 2 2 2 2
3 3 2 2 2 2 3 4 5 5 5 5 5 6 5 5 5 4 4 4 4 4 4 4 5 5 4 4 4 5 4 4 4 3 3 2 1 2 1 2 2 2 3
3 2 2 2 2 1 1 2 4 4 5 5 6 7 6 5 4 4 4 4 4 4 4 4 4 4 4 5 5 5 5 4 4 3 3 3 3 3 3 3 2 2 3
2 2 2 2 2 1 0 1 2 3 3 4 5 6 6 5 5 5 4 4 3 4 4 4 4 4 4 5 5 5 6 5 5 4 4 3 3 4 4 4 3 3 2
2 2 2 3 3 2 1 0 1 2 2 3 4 4 5 6 6 6 5 4 3 3 4 4 4 4 4 4 5 5 5 6 6 5 4 4 4 3 3 4 3 3 2
2 2 2 2 2 2 1 1 0 1 1 2 3 3 3 3 3 5 4 4 3 4 4 4 4 4 4 4 4 4 5 5 6 6 5 4 4 3 4 3 3 4 4
2 2 3 3 3 2 1 1 0 0 1 1 1 1 2 3 3 3 4 3 3 3 4 4 4 4 4 4 4 4 4 4 5 5 5 4 4 3 3 3 4 4 5
2 2 3 3 3 2 2 2 1 1 1 1 1 1 1 2 2 2 2 2 3 3 3 3 4 4 4 4 4 4 4 5 5 4 5 5 4 3 3 4 4 5 5
2 2 2 2 2 3 3 2 2 2 2 1 1 1 1 1 1 1 2 2 2 2 3 3 3 3 3 3 4 4 4 5 5 5 6 6 5 4 4 4 4 4 5
2 2 2 3 3 3 3 3 3 2 2 2 1 1 1 1 1 1 1 1 1 1 2 2 3 3 3 3 4 4 4 5 5 5 6 6 5 6 5 4 5 5 5
2 2 2 2 2 3 3 3 3 3 3 2 1 1 1 1 1 2 1 1 1 1 1 2 2 3 3 3 3 4 4 4 5 5 5 6 6 6 5 5 5 5 4
1 1 2 2 2 3 3 3 3 3 2 2 2 2 2 2 2 2 1 1 1 1 1 1 2 2 2 2 2 3 3 4 4 4 4 5 5 6 6 5 6 5 5
1 1 2 2 2 3 3 3 3 2 2 2 2 2 2 2 2 1 1 1 1 1 1 1 1 1 2 2 2 3 3 3 3 3 4 4 4 5 5 4 5 5 5
2 2 2 2 2 2 3 2 2 2 1 1 2 2 3 2 2 2 1 1 1 1 1 1 1 1 1 1 2 3 3 3 3 3 3 4 4 5 6 6 6 6 6
2 2 2 2 2 3 3 2 2 2 1 1 2 2 2 2 2 2 1 1 1 1 1 1 1 2 2 2 2 3 3 3 3 4 3 3 3 4 5 5 7 7 7
3 3 3 3 3 3 3 2 2 1 1 1 2 2 2 2 2 2 2 2 2 1 1 2 2 2 3 3 3 3 3 3 4 4 4 4 4 4 4 4 5 5 6
3 3 2 2 2 2 2 2 1 1 1 2 2 3 3 2 2 2 2 2 2 2 2 2 2 3 3 3 4 3 3 3 4 4 4 4 5 5 5 5 5 6 5
2 2 2 2 2 2 2 1 1 1 2 3 3 3 3 2 2 3 3 2 2 2 2 2 2 3 3 4 4 4 3 3 3 3 3 4 6 6 6 6 5 6 6
3 3 2 2 2 3 2 1 1 2 4 4 3 3 3 3 3 3 2 2 2 2 2 2 2 3 3 4 5 5 3 3 4 4 3 3 6 7 7 7 5 7 5
4 4 2 2 3 3 2 1 2 4 4 3 3 3 3 3 2 2 2 2 2 2 2 2 3 2 3 3 4 5 5 5 4 4 4 4 5 7 7 6 7 7 5
4 4 3 2 3 3 2 2 3 4 4 3 3 3 3 3 3 2 2 2 2 2 2 2 3 3 2 3 5 5 6 6 5 4 6 6 7 7 6 7 7 5 3
3 3 3 3 3 4 3 3 4 4 3 2 3 3 3 3 3 2 2 2 2 2 3 3 3 3 3 3 3 3 4 5 5 5 4 6 6 6 5 4 4 4 3
3 3 2 3 3 4 4 4 4 3 3 2 2 3 2 3 3 2 2 3 3 3 4 4 4 4 4 5 7 5 4 4 4 4 3 3 3 3 3 3 3 3 3
3 2 3 3 4 3 3 4 4 3 2 2 2 2 2 2 3 3 3 4 5 7 8 8 7 6 7 9 9 9 9 8 6 4 3 4 4 4 4 4 4 4 4
Wind_Direction
272 267 253 239 228 220 207 200 198 195 188 190 194 196 197 196 195 195 193 194 188 185 189 184 181 187 189 184 181 180 181 189 184 208 240 237 231 238 241 241 237 233 242
284 279 258 228 219 221 217 207 202 198 196 199 202 206 201 201 199 192 198 199 193 188 192 194 186 187 189 184 181 176 187 185 196 214 227 239 214 213 229 232 235 236 230
280 287 278 243 226 231 227 216 208 205 203 196 187 182 187 192 198 205 206 207 201 191 194 203 193 189 191 191 189 188 196 194 196 224 234 233 235 217 196 223 232 228 231
276 285 281 257 243 250 238 224 213 205 200 193 194 195 200 207 210 207 205 198 199 198 199 202 198 191 193 193 193 195 202 202 197 203 240 270 301 244 232 208 221 243 252
281 284 293 276 270 279 242 222 209 200 196 198 203 204 213 219 210 199 202 195 194 203 203 199 196 196 199 199 196 194 198 204 210 202 200 213 232 244 249 249 236 239 244
304 311 329 333 335 343 281 202 194 192 196 202 207 211 213 213 207 203 200 198 196 200 205 199 201 206 206 203 201 200 200 203 210 213 210 208 211 214 224 245 260 262 248
339 344 354 353 351 352 353 238 194 191 197 205 210 218 221 217 214 211 208 203 199 203 207 200 207 213 214 212 206 202 204 206 207 211 216 226 235 233 229 240 253 261 259
342 343 349 349 349 345 347 342 229 208 200 208 218 224 226 226 222 216 211 208 211 212 204 201 207 213 209 209 209 208 209 210 212 215 216 219 229 228 227 230 236 253 250
342 349 354 351 351 346 337 329 317 278 232 223 222 231 230 233 232 226 220 215 215 210 204 199 203 207 204 205 204 212 212 213 216 217 217 221 225 226 231 234 235 242 253
360 354 358 358 354 345 342 346 348 332 320 310 272 260 244 245 242 232 233 228 219 205 197 193 200 204 204 205 205 212 215 212 217 217 216 220 223 223 223 228 236 243 251
347 358 3 5 5 5 6 358 350 354 354 335 310 279 261 253 240 237 246 245 235 214 200 194 198 200 203 205 207 213 213 214 218 219 218 222 221 222 221 223 230 236 240
343 357 10 18 14 8 7 4 356 350 346 339 327 294 276 258 240 244 252 256 243 230 218 203 201 206 207 208 210 216 218 218 220 220 220 223 220 223 224 222 228 234 236
348 3 13 14 8 358 355 358 354 349 349 346 337 324 305 285 272 269 267 260 248 239 224 213 213 218 219 221 222 221 219 221 224 223 223 227 222 225 225 225 230 235 238
342 358 1 360 2 355 348 348 347 347 352 355 345 329 313 297 290 290 277 258 247 236 229 226 230 235 232 237 234 228 224 225 229 231 229 229 226 230 231 230 233 234 237
331 339 348 351 351 351 348 342 336 345 352 357 352 333 322 317 316 315 300 280 263 256 244 240 242 251 243 244 235 230 227 228 233 235 237 239 239 241 238 237 236 232 236
304 310 324 333 334 329 327 326 323 326 333 340 335 340 344 342 333 320 320 317 297 285 284 264 249 254 269 276 246 240 235 231 230 235 242 246 242 245 244 245 244 239 236
300 301 298 302 311 312 310 304 305 305 300 311 330 343 338 335 333 326 316 305 291 284 274 280 272 266 279 284 265 248 243 240 239 238 240 243 251 241 242 245 247 247 250
300 299 301 306 315 319 317 313 321 326 321 319 326 331 327 324 327 324 317 305 295 278 268 274 276 279 291 289 275 261 248 252 251 248 244 246 254 252 246 241 243 248 251
306 306 305 306 316 328 328 324 342 342 332 319 315 316 314 315 318 313 309 310 300 289 285 287 278 278 289 292 283 271 259 257 259 258 254 255 261 266 250 243 250 257 262
339 335 332 333 337 341 337 336 350 341 314 308 305 304 301 298 298 298 302 304 293 291 299 294 285 285 290 298 290 274 264 265 266 263 259 259 264 268 250 246 250 257 265
348 357 356 357 352 350 345 339 341 324 315 311 309 306 300 293 289 293 302 303 303 303 303 296 293 292 293 293 290 280 270 269 273 270 268 268 267 264 258 254 255 265 274
358 1 358 358 2 1 351 333 328 325 322 318 317 313 308 303 301 298 305 311 304 295 297 299 302 298 293 294 294 285 276 280 271 273 275 276 271 265 266 262 269 273 271
349 352 351 354 2 359 349 324 325 328 326 325 321 321 320 315 315 302 299 301 293 284 291 295 298 302 302 299 300 293 286 283 276 276 279 280 278 274 269 271 274 271 260
343 347 353 351 348 347 345 333 329 330 325 320 320 323 320 319 320 308 297 286 280 279 282 286 288 296 298 299 303 294 289 280 275 279 280 278 279 274 276 277 266 257 253
338 342 339 329 328 334 336 343 341 336 326 318 318 320 317 315 306 298 287 284 278 275 280 283 284 287 289 294 296 293 291 288 281 280 276 274 275 270 268 267 263 255 248
330 335 333 329 326 329 333 342 336 329 316 309 315 310 307 306 304 302 300 287 288 292 287 284 283 283 285 296 292 290 292 292 286 274 265 267 268 268 269 268 266 258 254